TimeHST,TemperatureF,Dew PointF,Humidity,Sea Level PressureIn,VisibilityMPH,Wind Direction,Wind SpeedMPH,Gust SpeedMPH,PrecipitationIn,Events,Conditions,WindDirDegrees,DateUTC
12:54 AM,73.0,64.0,73,29.99,10.0,NE,9.2,-,N/A,,Clear,50,2013-07-17 10:54:00
1:54 AM,73.0,66.9,81,29.98,10.0,NE,9.2,-,N/A,,Clear,50,2013-07-17 11:54:00
2:54 AM,73.0,66.0,79,29.97,10.0,NE,5.8,-,N/A,,Clear,40,2013-07-17 12:54:00
3:54 AM,73.0,64.0,73,29.96,10.0,NNE,3.5,-,N/A,,Clear,30,2013-07-17 13:54:00
4:54 AM,73.0,62.1,68,29.96,10.0,NNE,6.9,-,N/A,,Clear,30,2013-07-17 14:54:00
5:54 AM,73.0,61.0,66,29.98,10.0,NE,5.8,-,N/A,,Clear,50,2013-07-17 15:54:00
6:54 AM,75.0,61.0,62,29.99,10.0,NNE,5.8,-,N/A,,Clear,30,2013-07-17 16:54:00
7:54 AM,79.0,62.1,56,30.00,10.0,NE,5.8,-,N/A,,Clear,40,2013-07-17 17:54:00
8:54 AM,80.1,60.1,50,30.01,10.0,Variable,4.6,-,N/A,,Clear,0,2013-07-17 18:54:00
9:54 AM,82.0,66.0,58,30.01,10.0,NNE,11.5,19.6,N/A,,Partly Cloudy,30,2013-07-17 19:54:00
10:54 AM,84.0,66.9,56,30.00,10.0,NE,13.8,20.7,N/A,,Partly Cloudy,50,2013-07-17 20:54:00
11:54 AM,84.0,66.0,55,29.99,10.0,NE,17.3,24.2,N/A,,Partly Cloudy,40,2013-07-17 21:54:00
12:54 PM,84.0,66.9,56,29.98,10.0,NNE,12.7,26.5,N/A,,Scattered Clouds,30,2013-07-17 22:54:00
1:54 PM,84.0,66.0,55,29.97,10.0,NE,18.4,25.3,N/A,,Partly Cloudy,40,2013-07-17 23:54:00
2:54 PM,82.9,66.0,56,29.96,10.0,ENE,25.3,31.1,N/A,,Scattered Clouds,60,2013-07-18 00:54:00
3:54 PM,82.0,64.9,56,29.96,10.0,NE,16.1,27.6,N/A,,Scattered Clouds,40,2013-07-18 01:54:00
4:54 PM,81.0,64.9,58,29.96,10.0,NE,15.0,23.0,N/A,,Scattered Clouds,50,2013-07-18 02:54:00
5:54 PM,78.1,66.9,68,29.96,10.0,NE,13.8,25.3,N/A,,Partly Cloudy,40,2013-07-18 03:54:00
6:54 PM,75.0,66.9,76,29.98,10.0,NE,11.5,25.3,N/A,,Clear,40,2013-07-18 04:54:00
7:54 PM,73.9,68.0,82,29.99,10.0,NE,13.8,24.2,N/A,,Clear,50,2013-07-18 05:54:00
8:54 PM,73.9,66.0,76,30.02,10.0,ENE,10.4,18.4,N/A,,Clear,60,2013-07-18 06:54:00
9:54 PM,73.9,64.9,73,30.03,10.0,NE,9.2,16.1,N/A,,Clear,50,2013-07-18 07:54:00
10:54 PM,73.0,64.9,76,30.04,10.0,ENE,15.0,18.4,N/A,,Clear,70,2013-07-18 08:54:00
11:54 PM,73.0,64.0,73,30.03,10.0,NNE,9.2,-,N/A,,Partly Cloudy,30,2013-07-18 09:54:00